PIA701 OPIS-EGCC

Flight info

Callsign PIA701
Flight time N/A
Altitude 36000
Route KALMI J139 HANGU G796 LAJAK L509 TAPIS M875 AMDAR/K0902F340 T186 LAPZE Z407 ODIVA M161 LEDGI M166 ARISA L736 ASKIL L979 GRD L32 SOTET/N0475F340 L32 SUWGI T727 DENKO M994 GILAS DCT BUREL DCT HLZ L980 SAS DCT MAWEQ DCT TENLI DCT RAVLO Y70 OTBED
Aircraft B772/H-SDE2E3FGHIJ5LORVWXY/LB1D1

Departure

Time 2026-05-08 11:56
Airport Islamabad International Airport (OPIS)

Arrival

Time N/A
Airport Manchester Airport (EGCC)
Time Latitude Longitude Altitude Speed Heading
2026-05-08 11:14 33.55471 72.82966 1778 ft 0 kts 144°
2026-05-08 11:43 33.55478 72.82960 1775 ft 4 kts 144°
2026-05-08 11:44 33.55500 72.82941 1774 ft 4 kts 144°
2026-05-08 11:44 33.55517 72.82926 1775 ft 4 kts 150°
2026-05-08 11:44 33.55540 72.82915 1774 ft 4 kts 179°
2026-05-08 11:44 33.55562 72.82920 1774 ft 4 kts 214°
2026-05-08 11:45 33.55579 72.82940 1773 ft 4 kts 235°
2026-05-08 11:45 33.55594 72.82966 1775 ft 2 kts 235°
2026-05-08 11:45 33.55595 72.82968 1775 ft 0 kts 235°
2026-05-08 11:48 33.55594 72.82967 1775 ft 0 kts 235°
2026-05-08 11:48 33.55588 72.82956 1776 ft 3 kts 235°
2026-05-08 11:49 33.55569 72.82922 1774 ft 7 kts 235°
2026-05-08 11:49 33.55532 72.82857 1777 ft 12 kts 236°
2026-05-08 11:49 33.55480 72.82766 1777 ft 14 kts 236°
2026-05-08 11:49 33.55423 72.82666 1777 ft 13 kts 233°
2026-05-08 11:50 33.55352 72.82620 1777 ft 12 kts 191°
2026-05-08 11:50 33.55264 72.82601 1776 ft 14 kts 189°
2026-05-08 11:50 33.55204 72.82556 1776 ft 11 kts 258°
2026-05-08 11:50 33.55214 72.82456 1775 ft 13 kts 279°
2026-05-08 11:51 33.55233 72.82334 1774 ft 16 kts 281°
2026-05-08 11:51 33.55257 72.82189 1774 ft 19 kts 281°
2026-05-08 11:51 33.55279 72.82030 1775 ft 19 kts 280°
2026-05-08 11:51 33.55305 72.81871 1774 ft 19 kts 281°
2026-05-08 11:52 33.55330 72.81711 1773 ft 19 kts 281°
2026-05-08 11:52 33.55355 72.81554 1775 ft 19 kts 279°
2026-05-08 11:52 33.55377 72.81394 1772 ft 19 kts 280°
2026-05-08 11:52 33.55401 72.81233 1774 ft 19 kts 281°
2026-05-08 11:53 33.55427 72.81074 1775 ft 19 kts 281°
2026-05-08 11:53 33.55453 72.80915 1775 ft 19 kts 281°
2026-05-08 11:53 33.55474 72.80781 1774 ft 13 kts 280°
2026-05-08 11:53 33.55456 72.80702 1775 ft 10 kts 223°
2026-05-08 11:54 33.55392 72.80682 1770 ft 11 kts 187°
2026-05-08 11:54 33.55306 72.80667 1768 ft 13 kts 189°
2026-05-08 11:54 33.55214 72.80648 1766 ft 13 kts 189°
2026-05-08 11:54 33.55137 72.80632 1764 ft 8 kts 188°
2026-05-08 11:55 33.55106 72.80649 1764 ft 4 kts 123°
2026-05-08 11:55 33.55100 72.80683 1763 ft 4 kts 98°
2026-05-08 11:55 33.55096 72.80712 1764 ft 3 kts 100°
2026-05-08 11:55 33.55072 72.80873 1763 ft 47 kts 101°
2026-05-08 11:56 33.54966 72.81555 1768 ft 117 kts 100°
2026-05-08 11:56 33.54778 72.82762 1769 ft 175 kts 101°
2026-05-08 11:56 33.54535 72.84316 2192 ft 195 kts 102°
2026-05-08 11:56 33.54279 72.85978 2756 ft 207 kts 101°
2026-05-08 11:57 33.54020 72.87637 3533 ft 202 kts 101°
2026-05-08 11:57 33.53751 72.89336 3977 ft 217 kts 101°
2026-05-08 11:57 33.53373 72.91171 4116 ft 236 kts 116°
2026-05-08 11:57 33.52239 72.92605 4524 ft 243 kts 153°
2026-05-08 11:58 33.50597 72.92997 5107 ft 242 kts 188°
2026-05-08 11:58 33.49019 72.92463 5862 ft 233 kts 200°
2026-05-08 11:58 33.47487 72.91806 6430 ft 235 kts 200°
2026-05-08 11:59 33.44389 72.90414 7274 ft 250 kts 200°
2026-05-08 11:59 33.42708 72.89704 7623 ft 260 kts 200°
2026-05-08 11:59 33.40957 72.88987 7988 ft 273 kts 199°
2026-05-08 11:59 33.39100 72.88239 8302 ft 285 kts 200°
2026-05-08 12:00 33.37331 72.87176 8679 ft 289 kts 223°
2026-05-08 12:00 33.36206 72.85206 9120 ft 290 kts 255°
2026-05-08 12:00 33.36065 72.82813 9564 ft 290 kts 280°
2026-05-08 12:00 33.36438 72.80463 9897 ft 294 kts 283°
2026-05-08 12:01 33.36861 72.78051 10154 ft 300 kts 283°
2026-05-08 12:01 33.37266 72.75544 10231 ft 312 kts 282°
2026-05-08 12:01 33.37668 72.72947 10305 ft 322 kts 282°
2026-05-08 12:01 33.38078 72.70273 10379 ft 332 kts 282°
2026-05-08 12:02 33.38500 72.67519 10497 ft 339 kts 282°
2026-05-08 12:02 33.38970 72.64758 10842 ft 346 kts 285°
2026-05-08 12:02 33.39631 72.61915 11048 ft 365 kts 288°
2026-05-08 12:02 33.40412 72.58983 11584 ft 373 kts 290°
2026-05-08 12:03 33.41236 72.56007 12230 ft 379 kts 290°
2026-05-08 12:03 33.42073 72.52994 12982 ft 382 kts 290°
2026-05-08 12:03 33.42907 72.49954 13718 ft 384 kts 290°
2026-05-08 12:03 33.43730 72.46896 14365 ft 387 kts 290°
2026-05-08 12:04 33.44540 72.43845 14974 ft 390 kts 290°
2026-05-08 12:04 33.45361 72.40724 15557 ft 394 kts 290°
2026-05-08 12:04 33.46183 72.37574 16140 ft 398 kts 290°
2026-05-08 12:04 33.47009 72.34397 16744 ft 401 kts 290°
2026-05-08 12:05 33.47840 72.31196 17317 ft 404 kts 290°
2026-05-08 12:05 33.48677 72.27962 17876 ft 408 kts 290°
2026-05-08 12:05 33.49522 72.24699 18373 ft 411 kts 289°
2026-05-08 12:05 33.50372 72.21411 18854 ft 414 kts 289°
2026-05-08 12:06 33.51218 72.18141 19333 ft 417 kts 289°
2026-05-08 12:06 33.52080 72.14806 19792 ft 420 kts 289°
2026-05-08 12:06 33.52947 72.11445 20252 ft 423 kts 289°
2026-05-08 12:06 33.53819 72.08062 20725 ft 426 kts 289°
2026-05-08 12:07 33.54697 72.04649 21175 ft 429 kts 289°
2026-05-08 12:07 33.55580 72.01210 21615 ft 432 kts 288°
2026-05-08 12:07 33.56467 71.97752 22041 ft 435 kts 288°
2026-05-08 12:07 33.57347 71.94315 22480 ft 437 kts 288°
2026-05-08 12:08 33.58241 71.90818 22913 ft 440 kts 288°
2026-05-08 12:08 33.59143 71.87285 23355 ft 442 kts 288°
2026-05-08 12:08 33.60046 71.83743 23744 ft 444 kts 288°
2026-05-08 12:08 33.60951 71.80188 24129 ft 446 kts 288°
2026-05-08 12:09 33.61856 71.76627 24541 ft 447 kts 289°
2026-05-08 12:09 33.62754 71.73090 24920 ft 448 kts 289°
2026-05-08 12:09 33.63666 71.69498 25283 ft 450 kts 289°
2026-05-08 12:09 33.64577 71.65900 25689 ft 451 kts 289°
2026-05-08 12:10 33.65490 71.62288 26105 ft 453 kts 289°
2026-05-08 12:10 33.66408 71.58656 26475 ft 454 kts 289°
2026-05-08 12:10 33.67325 71.55023 26865 ft 456 kts 289°
2026-05-08 12:10 33.68234 71.51420 27188 ft 458 kts 289°
2026-05-08 12:11 33.69158 71.47750 27581 ft 459 kts 290°
2026-05-08 12:11 33.70081 71.44081 27970 ft 460 kts 290°
2026-05-08 12:11 33.71005 71.40399 28316 ft 462 kts 290°
2026-05-08 12:11 33.71937 71.36690 28560 ft 465 kts 290°
2026-05-08 12:12 33.72860 71.33011 28852 ft 468 kts 290°
2026-05-08 12:12 33.73797 71.29262 29107 ft 468 kts 290°
2026-05-08 12:12 33.74732 71.25506 29292 ft 471 kts 290°
2026-05-08 12:12 33.75672 71.21728 29586 ft 472 kts 290°
2026-05-08 12:13 33.76616 71.17941 29928 ft 472 kts 290°
2026-05-08 12:13 33.77559 71.14149 30187 ft 473 kts 290°
2026-05-08 12:13 33.78184 71.11636 30357 ft 473 kts 290°
2026-05-08 12:13 33.79438 71.06580 30758 ft 471 kts 290°
2026-05-08 12:14 33.80056 71.04084 30929 ft 471 kts 290°
2026-05-08 12:14 33.81295 70.99073 31275 ft 470 kts 290°
2026-05-08 12:14 33.81912 70.96571 31461 ft 469 kts 291°
2026-05-08 12:14 33.82837 70.92815 31825 ft 466 kts 290°
2026-05-08 12:15 33.83757 70.89079 32141 ft 465 kts 290°
2026-05-08 12:15 33.84673 70.85354 32432 ft 464 kts 289°
2026-05-08 12:15 33.85589 70.81631 32750 ft 463 kts 290°
2026-05-08 12:15 33.86499 70.77924 33185 ft 460 kts 290°
2026-05-08 12:16 33.87403 70.74228 33500 ft 460 kts 290°
2026-05-08 12:16 33.88305 70.70531 33765 ft 460 kts 290°
2026-05-08 12:16 33.89206 70.66837 34024 ft 459 kts 290°
2026-05-08 12:16 33.90103 70.63157 34308 ft 456 kts 290°
2026-05-08 12:17 33.90985 70.59536 34621 ft 454 kts 290°
2026-05-08 12:17 33.91873 70.55888 34852 ft 453 kts 290°
2026-05-08 12:17 33.92765 70.52288 35369 ft 443 kts 291°
2026-05-08 12:17 33.93764 70.48806 35792 ft 433 kts 294°
2026-05-08 12:18 33.94947 70.45516 35996 ft 423 kts 299°
2026-05-08 12:18 33.96329 70.42363 35896 ft 427 kts 302°
2026-05-08 12:18 33.99315 70.36100 35924 ft 434 kts 302°
2026-05-08 12:19 34.02204 70.29830 35962 ft 438 kts 301°
2026-05-08 12:19 34.05079 70.23315 35929 ft 440 kts 300°
2026-05-08 12:20 34.07904 70.16824 35949 ft 435 kts 300°
2026-05-08 12:20 34.10702 70.10407 35877 ft 427 kts 300°
2026-05-08 12:21 34.13481 70.04051 35945 ft 429 kts 301°
2026-05-08 12:21 34.16283 69.97638 35921 ft 433 kts 300°
2026-05-08 12:22 34.19079 69.91202 35922 ft 436 kts 300°
2026-05-08 12:22 34.21892 69.84699 35947 ft 436 kts 300°
2026-05-08 12:23 34.24673 69.78249 35933 ft 431 kts 300°
2026-05-08 12:23 34.27424 69.71859 35945 ft 426 kts 300°
2026-05-08 12:24 34.30162 69.65499 35940 ft 425 kts 300°
2026-05-08 12:24 34.32884 69.59160 35941 ft 426 kts 300°
2026-05-08 12:25 34.35610 69.52802 35932 ft 428 kts 300°
2026-05-08 12:25 34.38359 69.46375 35921 ft 429 kts 300°
2026-05-08 12:26 34.41080 69.39995 35908 ft 429 kts 300°
2026-05-08 12:26 34.43824 69.33557 35920 ft 429 kts 300°
2026-05-08 12:27 34.46564 69.27113 35901 ft 431 kts 300°
2026-05-08 12:27 34.49300 69.20689 35915 ft 427 kts 301°
2026-05-08 12:28 34.52923 69.15137 35921 ft 423 kts 318°
2026-05-08 12:28 34.57714 69.10890 35935 ft 430 kts 328°
2026-05-08 12:29 34.62993 69.07468 35937 ft 435 kts 331°
2026-05-08 12:29 34.68420 69.04133 35945 ft 436 kts 331°
2026-05-08 12:30 34.73779 69.00751 35958 ft 429 kts 330°
2026-05-08 12:30 34.79005 68.97376 35974 ft 426 kts 329°
2026-05-08 12:31 34.84221 68.93977 35997 ft 424 kts 329°
2026-05-08 12:31 34.89429 68.90578 36006 ft 424 kts 330°
2026-05-08 12:32 34.94645 68.87178 36038 ft 429 kts 329°
2026-05-08 12:32 34.99933 68.83730 36064 ft 432 kts 329°
2026-05-08 12:33 35.05251 68.80260 36089 ft 434 kts 329°
2026-05-08 12:33 35.10540 68.76802 36117 ft 431 kts 329°
2026-05-08 12:34 35.15785 68.73371 36137 ft 426 kts 329°
2026-05-08 12:34 35.21011 68.69940 36151 ft 425 kts 329°
2026-05-08 12:35 35.26220 68.66519 36146 ft 424 kts 329°
2026-05-08 12:35 35.31402 68.63110 36145 ft 426 kts 329°
2026-05-08 12:36 35.36640 68.59657 36154 ft 430 kts 329°
2026-05-08 12:36 35.41964 68.56142 36148 ft 436 kts 329°
2026-05-08 12:37 35.47294 68.52620 36135 ft 439 kts 329°
2026-05-08 12:37 35.52697 68.49045 36118 ft 439 kts 329°
2026-05-08 12:38 35.58047 68.45499 36109 ft 438 kts 329°
2026-05-08 12:38 35.63395 68.41942 36099 ft 435 kts 329°
2026-05-08 12:39 35.68716 68.38382 36092 ft 434 kts 329°
2026-05-08 12:39 35.73990 68.34837 36096 ft 435 kts 329°
2026-05-08 12:40 35.79318 68.31256 36099 ft 436 kts 329°
2026-05-08 12:40 35.84622 68.27690 36092 ft 435 kts 328°
2026-05-08 12:41 35.89933 68.24110 36091 ft 434 kts 328°
2026-05-08 12:41 35.95241 68.20527 36083 ft 434 kts 328°
2026-05-08 12:42 36.00536 68.16949 36075 ft 433 kts 328°
2026-05-08 12:42 36.05804 68.13383 36072 ft 434 kts 328°
2026-05-08 12:43 36.11114 68.09782 36064 ft 435 kts 328°
2026-05-08 12:43 36.16432 68.06171 36041 ft 437 kts 328°
2026-05-08 12:44 36.21750 68.02554 36042 ft 440 kts 328°
2026-05-08 12:44 36.27136 67.98885 36036 ft 442 kts 328°
2026-05-08 12:45 36.32502 67.95224 36028 ft 442 kts 328°
2026-05-08 12:45 36.37911 67.91528 36019 ft 442 kts 328°
2026-05-08 12:46 36.43302 67.87840 36001 ft 442 kts 328°
2026-05-08 12:46 36.48649 67.84175 36007 ft 441 kts 328°
2026-05-08 12:47 36.54032 67.80478 35985 ft 441 kts 328°
2026-05-08 12:47 36.59401 67.76785 35982 ft 440 kts 328°
2026-05-08 12:48 36.64749 67.73100 35986 ft 440 kts 328°
2026-05-08 12:48 36.70115 67.69397 35972 ft 441 kts 328°
2026-05-08 12:49 36.75457 67.65714 35964 ft 441 kts 328°
2026-05-08 12:49 36.80851 67.62003 35956 ft 441 kts 328°
2026-05-08 12:50 36.86200 67.58317 35943 ft 442 kts 328°
2026-05-08 12:50 36.91596 67.54589 35941 ft 442 kts 328°
2026-05-08 12:51 36.99667 67.49001 35932 ft 443 kts 328°
2026-05-08 12:52 37.05065 67.45255 35922 ft 444 kts 328°
2026-05-08 12:52 37.13187 67.39608 35914 ft 445 kts 327°
2026-05-08 12:53 37.18623 67.35866 35910 ft 446 kts 329°
2026-05-08 12:53 37.24320 67.32851 35896 ft 441 kts 339°
2026-05-08 12:54 37.30285 67.30860 35923 ft 450 kts 339°
2026-05-08 12:54 37.36017 67.27972 35921 ft 441 kts 327°
2026-05-08 12:55 37.41317 67.23956 35923 ft 447 kts 325°
2026-05-08 12:55 37.46737 67.20023 35930 ft 454 kts 328°
2026-05-08 12:56 37.52293 67.16374 35915 ft 448 kts 329°
2026-05-08 12:56 37.57829 67.12819 35929 ft 445 kts 329°
2026-05-08 12:57 37.63330 67.09226 35940 ft 445 kts 328°
2026-05-08 12:57 37.68817 67.05604 35947 ft 445 kts 327°
2026-05-08 12:58 37.74035 67.01529 35971 ft 442 kts 322°
2026-05-08 12:58 37.79049 66.96986 35978 ft 443 kts 321°
2026-05-08 12:59 37.84078 66.92452 35999 ft 444 kts 321°
2026-05-08 12:59 37.89145 66.88010 36014 ft 445 kts 322°
2026-05-08 13:00 37.94270 66.83547 36034 ft 446 kts 322°
2026-05-08 13:00 37.99362 66.79093 36013 ft 447 kts 322°
2026-05-08 13:01 38.04483 66.74601 36042 ft 447 kts 321°
2026-05-08 13:01 38.09599 66.70109 36050 ft 447 kts 321°
2026-05-08 13:02 38.13858 66.66363 36048 ft 447 kts 321°
2026-05-08 13:02 38.19807 66.61120 36040 ft 447 kts 321°
2026-05-08 13:03 38.24091 66.57338 36030 ft 447 kts 321°
2026-05-08 13:03 38.29179 66.52840 36029 ft 446 kts 321°
2026-05-08 13:04 38.34289 66.48313 36020 ft 446 kts 321°
2026-05-08 13:04 38.39349 66.43823 36006 ft 445 kts 321°
2026-05-08 13:05 38.44434 66.39302 35993 ft 444 kts 321°
2026-05-08 13:05 38.49510 66.34781 35992 ft 444 kts 321°
2026-05-08 13:06 38.54577 66.30259 35976 ft 445 kts 321°
2026-05-08 13:06 38.59646 66.25760 35963 ft 446 kts 322°
2026-05-08 13:07 38.65064 66.21789 35954 ft 452 kts 330°
2026-05-08 13:07 38.70908 66.18698 35953 ft 454 kts 335°
2026-05-08 13:08 38.76887 66.16103 35955 ft 456 kts 336°
2026-05-08 13:08 38.82883 66.13417 35949 ft 456 kts 335°
2026-05-08 13:09 38.88794 66.10554 35948 ft 456 kts 334°
2026-05-08 13:09 38.94715 66.07598 35944 ft 456 kts 333°
2026-05-08 13:10 39.00634 66.04643 35944 ft 456 kts 333°
2026-05-08 13:10 39.06558 66.01697 35944 ft 456 kts 333°
2026-05-08 13:11 39.12446 65.98770 35950 ft 455 kts 333°
2026-05-08 13:11 39.18359 65.95824 35956 ft 454 kts 333°
2026-05-08 13:12 39.24229 65.92891 35948 ft 454 kts 333°
2026-05-08 13:12 39.30117 65.89945 35953 ft 453 kts 333°
2026-05-08 13:13 39.36004 65.86995 35949 ft 453 kts 333°
2026-05-08 13:13 39.41877 65.84048 35951 ft 452 kts 333°
2026-05-08 13:14 39.47717 65.81110 35953 ft 452 kts 333°
2026-05-08 13:14 39.53589 65.78149 35957 ft 452 kts 333°
2026-05-08 13:15 39.59462 65.75184 35961 ft 452 kts 333°
2026-05-08 13:15 39.65286 65.72237 35964 ft 452 kts 333°
2026-05-08 13:16 39.71155 65.69261 35963 ft 452 kts 333°
2026-05-08 13:16 39.76979 65.66305 35978 ft 451 kts 332°
2026-05-08 13:17 39.82847 65.63321 35965 ft 452 kts 332°
2026-05-08 13:17 39.88710 65.60333 35966 ft 452 kts 332°
2026-05-08 13:18 39.94537 65.57358 35970 ft 451 kts 332°
2026-05-08 13:18 40.00393 65.54360 35976 ft 451 kts 332°
2026-05-08 13:19 40.06235 65.51366 35983 ft 451 kts 332°
2026-05-08 13:19 40.12047 65.48369 35978 ft 451 kts 332°
2026-05-08 13:20 40.17879 65.45351 35975 ft 451 kts 332°
2026-05-08 13:20 40.23721 65.42322 35977 ft 451 kts 331°
2026-05-08 13:21 40.29528 65.39308 35973 ft 451 kts 331°
2026-05-08 13:21 40.35375 65.36268 35976 ft 450 kts 331°
2026-05-08 13:22 40.41173 65.33246 35967 ft 450 kts 331°
2026-05-08 13:22 40.46991 65.30208 35970 ft 449 kts 331°
2026-05-08 13:23 40.52796 65.27171 35968 ft 448 kts 331°
2026-05-08 13:23 40.58596 65.24136 35959 ft 447 kts 330°
2026-05-08 13:24 40.64353 65.21130 35953 ft 446 kts 330°
2026-05-08 13:24 40.70132 65.18106 35952 ft 446 kts 330°
2026-05-08 13:25 40.75865 65.15099 35957 ft 445 kts 330°
2026-05-08 13:25 40.81628 65.12068 35949 ft 445 kts 330°
2026-05-08 13:26 40.87365 65.09047 35953 ft 445 kts 330°
2026-05-08 13:26 40.93120 65.06018 35948 ft 445 kts 330°
2026-05-08 13:27 40.98888 65.02978 35946 ft 445 kts 330°
2026-05-08 13:27 41.04603 64.99959 35950 ft 445 kts 330°
2026-05-08 13:28 41.10354 64.96913 35953 ft 445 kts 330°
2026-05-08 13:28 41.16128 64.93850 35959 ft 446 kts 329°
2026-05-08 13:29 41.21892 64.90788 35956 ft 447 kts 329°
2026-05-08 13:29 41.27639 64.87726 35964 ft 447 kts 329°
2026-05-08 13:30 41.33428 64.84634 35967 ft 448 kts 329°
2026-05-08 13:30 41.39223 64.81531 35972 ft 449 kts 329°
2026-05-08 13:31 41.45022 64.78422 35974 ft 449 kts 329°
2026-05-08 13:31 41.50837 64.75298 35975 ft 450 kts 328°
2026-05-08 13:32 41.56603 64.72193 35979 ft 449 kts 328°
2026-05-08 13:32 41.62420 64.69054 35975 ft 449 kts 328°
2026-05-08 13:33 41.68193 64.65932 35978 ft 449 kts 328°
2026-05-08 13:33 41.73988 64.62793 35982 ft 449 kts 328°
2026-05-08 13:34 41.79788 64.59618 35986 ft 448 kts 327°
2026-05-08 13:34 41.85510 64.56406 35971 ft 448 kts 327°
2026-05-08 13:35 41.91263 64.53158 35982 ft 448 kts 327°
2026-05-08 13:35 41.97010 64.49917 35979 ft 448 kts 327°
2026-05-08 13:36 42.02759 64.46676 35983 ft 448 kts 327°
2026-05-08 13:36 42.08533 64.43416 35990 ft 449 kts 327°
2026-05-08 13:37 42.14260 64.40176 35985 ft 450 kts 327°
2026-05-08 13:37 42.20041 64.36899 35981 ft 450 kts 327°
2026-05-08 13:38 42.25826 64.33612 35982 ft 451 kts 327°
2026-05-08 13:38 42.31628 64.30309 35979 ft 452 kts 327°
2026-05-08 13:39 42.37436 64.26997 35984 ft 453 kts 327°
2026-05-08 13:39 42.43255 64.23672 35987 ft 455 kts 327°
2026-05-08 13:40 42.49073 64.20371 35996 ft 457 kts 327°
2026-05-08 13:40 42.54968 64.17079 35987 ft 458 kts 327°
2026-05-08 13:41 42.60510 64.13310 35977 ft 434 kts 317°
2026-05-08 13:41 42.65010 64.08088 35990 ft 425 kts 306°
2026-05-08 13:42 42.69375 64.02656 35991 ft 430 kts 311°
2026-05-08 13:42 42.74169 63.97612 35999 ft 442 kts 313°
2026-05-08 13:43 42.79032 63.92412 35993 ft 445 kts 311°
2026-05-08 13:43 42.83833 63.87030 35992 ft 446 kts 310°
2026-05-08 13:44 42.88583 63.81622 35998 ft 447 kts 310°
2026-05-08 13:44 42.93362 63.76191 35990 ft 446 kts 310°
2026-05-08 13:45 42.98107 63.70802 35995 ft 445 kts 310°
2026-05-08 13:45 43.02867 63.65382 35997 ft 444 kts 310°
2026-05-08 13:46 43.07610 63.59966 35983 ft 443 kts 310°
2026-05-08 13:46 43.12311 63.54585 35980 ft 443 kts 309°
2026-05-08 13:47 43.17052 63.49145 35990 ft 444 kts 309°
2026-05-08 13:47 43.21765 63.43728 35993 ft 445 kts 309°
2026-05-08 13:48 43.26532 63.38237 35990 ft 446 kts 309°
2026-05-08 13:48 43.31297 63.32739 35988 ft 448 kts 309°
2026-05-08 13:49 43.36049 63.27243 35986 ft 449 kts 309°
2026-05-08 13:49 43.40846 63.21678 35987 ft 451 kts 310°
2026-05-08 13:50 43.45620 63.16129 35983 ft 452 kts 310°
2026-05-08 13:50 43.50439 63.10515 35990 ft 454 kts 310°
2026-05-08 13:51 43.54450 63.05834 35986 ft 455 kts 310°
2026-05-08 13:51 43.59287 63.00180 35968 ft 456 kts 310°
2026-05-08 13:52 43.64131 62.94509 35974 ft 457 kts 310°
2026-05-08 13:52 43.68968 62.88859 35977 ft 458 kts 310°
2026-05-08 13:53 43.73841 62.83156 35977 ft 459 kts 310°
2026-05-08 13:53 43.78712 62.77429 35977 ft 459 kts 311°
2026-05-08 13:54 43.83559 62.71712 35978 ft 460 kts 311°
2026-05-08 13:54 43.88458 62.65922 35978 ft 461 kts 311°
2026-05-08 13:55 43.93309 62.60178 35972 ft 462 kts 311°
2026-05-08 13:56 44.00654 62.51457 35980 ft 463 kts 311°
2026-05-08 13:56 44.05559 62.45616 35978 ft 463 kts 311°
2026-05-08 13:57 44.10435 62.39796 35975 ft 464 kts 311°
2026-05-08 13:57 44.15340 62.33931 35975 ft 464 kts 312°
2026-05-08 13:58 44.20251 62.28040 35978 ft 465 kts 312°
2026-05-08 13:58 44.25119 62.22171 35983 ft 465 kts 311°
2026-05-08 13:59 44.30018 62.16246 35979 ft 465 kts 311°
2026-05-08 13:59 44.34874 62.10359 35980 ft 465 kts 311°
2026-05-08 14:00 44.39780 62.04401 35983 ft 465 kts 311°
2026-05-08 14:00 44.44669 61.98451 35987 ft 465 kts 311°
2026-05-08 14:01 44.49530 61.92521 35988 ft 465 kts 311°
2026-05-08 14:01 44.54420 61.86541 35977 ft 466 kts 311°
2026-05-08 14:02 44.59267 61.80600 35987 ft 465 kts 311°
2026-05-08 14:02 44.64151 61.74601 35988 ft 465 kts 311°
2026-05-08 14:03 44.69028 61.68594 35986 ft 465 kts 311°
2026-05-08 14:03 44.73867 61.62621 35993 ft 466 kts 311°
2026-05-08 14:04 44.78747 61.56583 35994 ft 466 kts 311°
2026-05-08 14:04 44.83591 61.50575 35992 ft 466 kts 311°
2026-05-08 14:05 44.88457 61.44528 35988 ft 466 kts 311°
2026-05-08 14:05 44.93321 61.38474 35994 ft 466 kts 311°
2026-05-08 14:06 44.98188 61.32413 35997 ft 466 kts 311°
2026-05-08 14:06 45.03029 61.26368 35988 ft 466 kts 311°
2026-05-08 14:07 45.07890 61.20281 35973 ft 467 kts 311°
2026-05-08 14:07 45.12757 61.14174 35977 ft 467 kts 311°
2026-05-08 14:08 45.17618 61.08057 35983 ft 467 kts 311°
2026-05-08 14:08 45.22452 61.01961 35977 ft 467 kts 311°
2026-05-08 14:09 45.27324 60.95802 35973 ft 468 kts 311°
2026-05-08 14:09 45.32185 60.89641 35974 ft 468 kts 311°
2026-05-08 14:10 45.37018 60.83502 35975 ft 469 kts 311°
2026-05-08 14:10 45.41887 60.77303 35968 ft 469 kts 310°
2026-05-08 14:11 45.46756 60.71089 35959 ft 469 kts 310°
2026-05-08 14:11 45.51600 60.64890 35960 ft 469 kts 310°
2026-05-08 14:12 45.56431 60.58692 35961 ft 469 kts 310°
2026-05-08 14:12 45.61292 60.52438 35957 ft 469 kts 310°
2026-05-08 14:13 45.66143 60.46183 35955 ft 468 kts 310°
2026-05-08 14:13 45.70956 60.39962 35947 ft 468 kts 310°
2026-05-08 14:14 45.75784 60.33705 35944 ft 467 kts 310°
2026-05-08 14:14 45.80582 60.27473 35938 ft 467 kts 310°
2026-05-08 14:15 45.85394 60.21207 35937 ft 467 kts 310°
2026-05-08 14:15 45.90182 60.14957 35936 ft 467 kts 310°
2026-05-08 14:16 45.94992 60.08663 35931 ft 467 kts 310°
2026-05-08 14:16 45.99809 60.02344 35925 ft 468 kts 310°
2026-05-08 14:17 46.04603 59.96041 35922 ft 469 kts 310°
2026-05-08 14:17 46.09430 59.89677 35917 ft 470 kts 310°
2026-05-08 14:18 46.14230 59.83333 35910 ft 471 kts 311°
2026-05-08 14:18 46.19072 59.76920 35914 ft 471 kts 311°
2026-05-08 14:19 46.23897 59.70492 35916 ft 471 kts 310°
2026-05-08 14:19 46.28562 59.63906 35912 ft 471 kts 308°
2026-05-08 14:20 46.33183 59.57173 35912 ft 471 kts 308°
2026-05-08 14:20 46.37810 59.50444 35908 ft 472 kts 309°
2026-05-08 14:21 46.42464 59.43719 35911 ft 472 kts 309°
2026-05-08 14:21 46.47105 59.37020 35907 ft 472 kts 309°
2026-05-08 14:22 46.51766 59.30275 35904 ft 472 kts 309°
2026-05-08 14:22 46.56412 59.23529 35902 ft 472 kts 309°
2026-05-08 14:23 46.61053 59.16770 35903 ft 472 kts 309°
2026-05-08 14:23 46.65660 59.10043 35891 ft 472 kts 309°
2026-05-08 14:24 46.70291 59.03263 35896 ft 471 kts 309°
2026-05-08 14:24 46.74924 58.96464 35896 ft 471 kts 309°
2026-05-08 14:25 46.79514 58.89711 35901 ft 471 kts 309°
2026-05-08 14:25 46.84131 58.82899 35905 ft 471 kts 309°
2026-05-08 14:26 46.88755 58.76060 35904 ft 472 kts 309°
2026-05-08 14:26 46.93338 58.69263 35904 ft 472 kts 309°
2026-05-08 14:27 46.97952 58.62404 35901 ft 472 kts 309°
2026-05-08 14:27 47.02558 58.55538 35895 ft 472 kts 309°
2026-05-08 14:28 47.07135 58.48697 35900 ft 472 kts 309°
2026-05-08 14:28 47.11743 58.41792 35896 ft 472 kts 309°
2026-05-08 14:29 47.16320 58.34913 35938 ft 475 kts 309°
2026-05-08 14:29 47.18636 58.31425 36129 ft 475 kts 309°
2026-05-08 14:29 47.20945 58.27944 36376 ft 475 kts 309°
2026-05-08 14:29 47.23258 58.24453 36632 ft 474 kts 309°
2026-05-08 14:30 47.25558 58.20978 36837 ft 475 kts 309°
2026-05-08 14:30 47.27868 58.17482 37023 ft 475 kts 309°
2026-05-08 14:30 47.30171 58.13993 37235 ft 476 kts 309°
2026-05-08 14:30 47.32457 58.10528 37434 ft 476 kts 309°
2026-05-08 14:31 47.34762 58.07031 37632 ft 476 kts 309°
2026-05-08 14:31 47.37077 58.03517 37788 ft 477 kts 309°
2026-05-08 14:31 47.39398 57.99988 37836 ft 478 kts 309°
2026-05-08 14:32 47.46351 57.89388 37883 ft 477 kts 309°
2026-05-08 14:32 47.50940 57.82369 37881 ft 475 kts 309°
2026-05-08 14:33 47.55503 57.75367 37888 ft 473 kts 309°
2026-05-08 14:33 47.60067 57.68343 37874 ft 473 kts 309°
2026-05-08 14:34 47.64628 57.61307 37875 ft 473 kts 309°
2026-05-08 14:34 47.69184 57.54247 37878 ft 473 kts 309°
2026-05-08 14:35 47.73741 57.47159 37873 ft 474 kts 309°
2026-05-08 14:35 47.78278 57.40083 37874 ft 476 kts 309°
2026-05-08 14:36 47.82851 57.32935 37873 ft 476 kts 310°
2026-05-08 14:36 47.87424 57.25768 37875 ft 477 kts 310°
2026-05-08 14:37 47.91971 57.18622 37866 ft 477 kts 310°
2026-05-08 14:37 47.96535 57.11429 37858 ft 477 kts 310°
2026-05-08 14:38 48.01068 57.04266 37858 ft 476 kts 310°
2026-05-08 14:38 48.05612 56.97065 37857 ft 476 kts 310°
2026-05-08 14:39 48.10159 56.89839 37853 ft 476 kts 310°
2026-05-08 14:39 48.14667 56.82654 37851 ft 476 kts 310°
2026-05-08 14:40 48.19208 56.75397 37853 ft 476 kts 310°
2026-05-08 14:40 48.23719 56.68169 37845 ft 477 kts 310°
2026-05-08 14:41 48.28250 56.60887 37845 ft 477 kts 310°
2026-05-08 14:41 48.32022 56.54811 37842 ft 478 kts 310°
2026-05-08 14:42 48.36562 56.47480 37838 ft 478 kts 310°
2026-05-08 14:42 48.41104 56.40124 37841 ft 479 kts 310°
2026-05-08 14:43 48.45620 56.32789 37837 ft 479 kts 310°
2026-05-08 14:43 48.50161 56.25391 37828 ft 480 kts 310°
2026-05-08 14:44 48.54661 56.18043 37835 ft 479 kts 310°
2026-05-08 14:44 48.59189 56.10633 37831 ft 479 kts 310°
2026-05-08 14:45 48.63706 56.03220 37833 ft 479 kts 310°
2026-05-08 14:45 48.68217 55.95797 37833 ft 478 kts 310°
2026-05-08 14:46 48.72704 55.88407 37830 ft 478 kts 310°
2026-05-08 14:46 48.77213 55.80984 37829 ft 478 kts 310°
2026-05-08 14:47 48.81717 55.73543 37824 ft 478 kts 310°
2026-05-08 14:47 48.86183 55.66142 37828 ft 477 kts 310°
2026-05-08 14:48 48.90662 55.58667 37826 ft 477 kts 310°
2026-05-08 14:48 48.95127 55.51185 37828 ft 477 kts 310°
2026-05-08 14:49 48.99566 55.43727 37832 ft 477 kts 310°
2026-05-08 14:49 49.04027 55.36215 37834 ft 478 kts 310°
2026-05-08 14:50 49.08464 55.28721 37833 ft 478 kts 310°
2026-05-08 14:50 49.12932 55.21153 37831 ft 478 kts 310°
2026-05-08 14:51 49.17387 55.13587 37829 ft 479 kts 310°
2026-05-08 14:51 49.21815 55.06041 37832 ft 479 kts 310°
2026-05-08 14:52 49.28499 54.94606 37832 ft 480 kts 310°
2026-05-08 14:53 49.32949 54.86965 37834 ft 480 kts 310°
2026-05-08 14:53 49.37396 54.79307 37832 ft 480 kts 310°
2026-05-08 14:54 49.41810 54.71682 37835 ft 480 kts 310°
2026-05-08 14:54 49.46256 54.63981 37836 ft 480 kts 310°